User: anonymous   Login
Location: Unspecified
(0.0000°N, 0.0000°E)
Time: 09:11:58
(UTC+00:00)
Language:

Intelsat V F3 - Orbit

View from above orbital plane
View from above orbital plane
View from above satellite
View from above satellite

Ground track
Ground track

The orbit data is extracted from the following two-line orbital elements,

1 12994U 81119A   18018.30740345 -.00000265  00000-0  00000+0 0  9992
2 12994  14.8883 352.7754 0019404 181.7171   4.9992  0.99468822 96192
Epoch (UTC): 18 January 2018 07:22:39
Eccentricity: 0.0019404
inclination: 14.8883°
perigee height: 35930 km
apogee height: 36095 km
right ascension of ascending node: 352.7754°
argument of perigee: 181.7171°
revolutions per day: 0.99468822
mean anomaly at epoch: 4.9992°
orbit number at epoch: 9619

The dashed part of the orbit path shows where the satellite is in the earth's shadow,  

DLR